Time,TemperatureF,DewpointF,PressureIn,WindDirection,WindDirectionDegrees,WindSpeedMPH,WindSpeedGustMPH,Humidity,HourlyPrecipIn,Conditions,Clouds,dailyrainin,SoftwareType,DateUTC
2013-02-17 00:00:00,34.4,21.1,30.00,South,188,1.0,16.0,58,0.00,,,0.00,Wunderground v.1.15,2013-02-17 06:00:00,
2013-02-17 00:10:00,34.4,21.1,30.00,South,188,2.0,2.0,58,0.00,,,0.00,Wunderground v.1.15,2013-02-17 06:10:00,
2013-02-17 00:20:00,34.4,21.5,30.00,South,187,1.0,1.0,59,0.00,,,0.00,Wunderground v.1.15,2013-02-17 06:20:00,
2013-02-17 00:25:00,34.4,21.5,29.99,South,188,0.0,16.0,59,0.00,,,0.00,Wunderground v.1.15,2013-02-17 06:25:00,
2013-02-17 00:30:00,34.4,21.5,29.99,South,187,0.0,16.0,59,0.00,,,0.00,Wunderground v.1.15,2013-02-17 06:30:00,
2013-02-17 00:35:00,34.4,21.1,29.99,South,188,1.0,16.0,58,0.00,,,0.00,Wunderground v.1.15,2013-02-17 06:35:00,
2013-02-17 00:40:00,34.4,21.1,29.99,South,188,1.0,1.0,58,0.00,,,0.00,Wunderground v.1.15,2013-02-17 06:40:00,
2013-02-17 00:45:00,34.4,21.5,29.99,South,187,0.0,16.0,59,0.00,,,0.00,Wunderground v.1.15,2013-02-17 06:45:00,
2013-02-17 00:50:00,34.4,21.5,29.99,South,188,0.0,16.0,59,0.00,,,0.00,Wunderground v.1.15,2013-02-17 06:50:00,
2013-02-17 00:55:00,34.4,21.5,29.99,South,187,0.0,16.0,59,0.00,,,0.00,Wunderground v.1.15,2013-02-17 06:55:00,
2013-02-17 01:00:00,34.4,21.5,29.99,South,188,0.0,16.0,59,0.00,,,0.00,Wunderground v.1.15,2013-02-17 07:00:00,
2013-02-17 01:05:00,34.4,21.1,29.99,South,187,1.0,16.0,58,0.00,,,0.00,Wunderground v.1.15,2013-02-17 07:05:00,
2013-02-17 01:15:00,34.7,20.6,29.99,South,188,2.0,16.0,56,0.00,,,0.00,Wunderground v.1.15,2013-02-17 07:15:00,
2013-02-17 01:25:00,34.8,21.1,29.99,South,188,1.0,16.0,57,0.00,,,0.00,Wunderground v.1.15,2013-02-17 07:25:00,
2013-02-17 01:30:00,34.8,20.7,29.99,South,188,2.0,16.0,56,0.00,,,0.00,Wunderground v.1.15,2013-02-17 07:30:00,
2013-02-17 01:35:00,34.9,20.8,29.99,South,188,2.0,16.0,56,0.00,,,0.00,Wunderground v.1.15,2013-02-17 07:35:00,
2013-02-17 01:40:00,35.0,21.3,29.99,South,187,4.0,4.0,57,0.00,,,0.00,Wunderground v.1.15,2013-02-17 07:40:00,
2013-02-17 01:45:00,35.0,20.9,29.99,South,188,4.0,16.0,56,0.00,,,0.00,Wunderground v.1.15,2013-02-17 07:45:00,
2013-02-17 01:55:00,35.0,21.3,29.98,South,187,2.0,16.0,57,0.00,,,0.00,Wunderground v.1.15,2013-02-17 07:55:00,
2013-02-17 02:00:00,35.0,21.3,29.98,South,188,1.0,16.0,57,0.00,,,0.00,Wunderground v.1.15,2013-02-17 08:00:00,
2013-02-17 02:05:00,35.0,21.3,29.98,South,188,2.0,16.0,57,0.00,,,0.00,Wunderground v.1.15,2013-02-17 08:05:00,
2013-02-17 02:10:00,35.0,21.3,29.99,South,190,3.0,16.0,57,0.00,,,0.00,Wunderground v.1.15,2013-02-17 08:10:00,
2013-02-17 02:20:00,35.1,21.4,29.99,SSW,202,3.0,16.0,57,0.00,,,0.00,Wunderground v.1.15,2013-02-17 08:20:00,
2013-02-17 02:25:00,35.2,21.1,29.99,South,186,4.0,16.0,56,0.00,,,0.00,Wunderground v.1.15,2013-02-17 08:25:00,
2013-02-17 02:30:00,35.2,21.5,29.99,SSW,200,4.0,16.0,57,0.00,,,0.00,Wunderground v.1.15,2013-02-17 08:30:00,
2013-02-17 02:35:00,35.2,21.5,29.99,South,180,5.0,16.0,57,0.00,,,0.00,Wunderground v.1.15,2013-02-17 08:35:00,
2013-02-17 02:40:00,35.2,21.5,29.99,South,182,4.0,4.0,57,0.00,,,0.00,Wunderground v.1.15,2013-02-17 08:40:00,
2013-02-17 02:45:00,35.2,21.5,29.99,South,182,3.0,16.0,57,0.00,,,0.00,Wunderground v.1.15,2013-02-17 08:45:00,
2013-02-17 02:50:00,35.2,21.5,29.99,South,182,1.0,16.0,57,0.00,,,0.00,Wunderground v.1.15,2013-02-17 08:50:00,
2013-02-17 02:55:00,35.2,21.5,29.99,SSW,204,2.0,16.0,57,0.00,,,0.00,Wunderground v.1.15,2013-02-17 08:55:00,
2013-02-17 03:00:00,35.2,21.5,29.99,SSW,202,4.0,4.0,57,0.00,,,0.00,Wunderground v.1.15,2013-02-17 09:00:00,
2013-02-17 03:05:00,35.2,21.5,29.99,SSW,197,3.0,16.0,57,0.00,,,0.00,Wunderground v.1.15,2013-02-17 09:05:00,
2013-02-17 03:10:00,35.2,21.5,29.98,South,188,1.0,16.0,57,0.00,,,0.00,Wunderground v.1.15,2013-02-17 09:10:00,
2013-02-17 03:20:00,35.2,21.5,29.98,South,188,3.0,3.0,57,0.00,,,0.00,Wunderground v.1.15,2013-02-17 09:20:00,
2013-02-17 03:25:00,35.2,21.5,29.97,South,188,3.0,16.0,57,0.00,,,0.00,Wunderground v.1.15,2013-02-17 09:25:00,
2013-02-17 03:30:00,35.2,21.5,29.97,South,190,2.0,16.0,57,0.00,,,0.00,Wunderground v.1.15,2013-02-17 09:30:00,
2013-02-17 03:35:00,35.2,21.5,29.97,South,190,1.0,16.0,57,0.00,,,0.00,Wunderground v.1.15,2013-02-17 09:35:00,
2013-02-17 03:40:00,35.2,21.9,29.98,South,190,1.0,1.0,58,0.00,,,0.00,Wunderground v.1.15,2013-02-17 09:40:00,
2013-02-17 03:45:00,35.2,21.9,29.98,South,190,0.0,4.0,58,0.00,,,0.00,Wunderground v.1.15,2013-02-17 09:45:00,
2013-02-17 03:50:00,35.2,21.9,29.98,South,190,1.0,16.0,58,0.00,,,0.00,Wunderground v.1.15,2013-02-17 09:50:00,
2013-02-17 03:55:00,35.2,21.9,29.98,South,190,2.0,16.0,58,0.00,,,0.00,Wunderground v.1.15,2013-02-17 09:55:00,
2013-02-17 04:00:00,35.2,21.9,29.98,South,190,2.0,16.0,58,0.00,,,0.00,Wunderground v.1.15,2013-02-17 10:00:00,
2013-02-17 04:10:00,35.2,21.9,29.97,South,190,0.0,16.0,58,0.00,,,0.00,Wunderground v.1.15,2013-02-17 10:10:00,
2013-02-17 04:15:00,35.2,22.3,29.97,South,190,1.0,16.0,59,0.00,,,0.00,Wunderground v.1.15,2013-02-17 10:15:00,
2013-02-17 04:25:00,35.2,21.9,29.98,South,190,3.0,3.0,58,0.00,,,0.00,Wunderground v.1.15,2013-02-17 10:25:00,
2013-02-17 04:30:00,35.3,22.4,29.98,South,190,3.0,3.0,59,0.00,,,0.00,Wunderground v.1.15,2013-02-17 10:30:00,
2013-02-17 04:35:00,35.3,22.4,29.98,South,188,3.0,16.0,59,0.00,,,0.00,Wunderground v.1.15,2013-02-17 10:35:00,
2013-02-17 04:45:00,35.3,22.8,29.98,South,188,1.0,16.0,60,0.00,,,0.00,Wunderground v.1.15,2013-02-17 10:45:00,
2013-02-17 04:50:00,35.3,22.8,29.98,South,188,1.0,1.0,60,0.00,,,0.00,Wunderground v.1.15,2013-02-17 10:50:00,
2013-02-17 04:55:00,35.3,22.8,29.99,South,188,1.0,16.0,60,0.00,,,0.00,Wunderground v.1.15,2013-02-17 10:55:00,
2013-02-17 05:00:00,35.3,22.8,29.99,South,188,1.0,1.0,60,0.00,,,0.00,Wunderground v.1.15,2013-02-17 11:00:00,
2013-02-17 05:05:00,35.3,22.8,29.99,South,188,1.0,16.0,60,0.00,,,0.00,Wunderground v.1.15,2013-02-17 11:05:00,
2013-02-17 05:15:00,35.4,22.9,29.99,South,188,2.0,16.0,60,0.00,,,0.00,Wunderground v.1.15,2013-02-17 11:15:00,
2013-02-17 05:25:00,35.4,22.9,29.99,South,190,2.0,16.0,60,0.00,,,0.00,Wunderground v.1.15,2013-02-17 11:25:00,
2013-02-17 05:30:00,35.4,22.9,29.99,South,186,2.0,16.0,60,0.00,,,0.00,Wunderground v.1.15,2013-02-17 11:30:00,
2013-02-17 05:35:00,35.4,22.9,29.99,South,184,3.0,16.0,60,0.00,,,0.00,Wunderground v.1.15,2013-02-17 11:35:00,
2013-02-17 05:40:00,35.4,22.9,30.00,South,187,3.0,16.0,60,0.00,,,0.00,Wunderground v.1.15,2013-02-17 11:40:00,
2013-02-17 05:50:00,35.5,23.0,30.00,South,188,2.0,2.0,60,0.00,,,0.00,Wunderground v.1.15,2013-02-17 11:50:00,
2013-02-17 05:55:00,35.5,23.0,29.99,South,187,1.0,4.0,60,0.00,,,0.00,Wunderground v.1.15,2013-02-17 11:55:00,
2013-02-17 06:00:00,35.5,23.0,29.99,South,187,1.0,16.0,60,0.00,,,0.00,Wunderground v.1.15,2013-02-17 12:00:00,
2013-02-17 06:05:00,35.4,22.9,29.99,South,187,1.0,16.0,60,0.00,,,0.00,Wunderground v.1.15,2013-02-17 12:05:00,
2013-02-17 06:10:00,35.4,23.3,29.99,South,185,1.0,16.0,61,0.00,,,0.00,Wunderground v.1.15,2013-02-17 12:10:00,
2013-02-17 06:20:00,35.4,23.3,29.99,South,184,2.0,2.0,61,0.00,,,0.00,Wunderground v.1.15,2013-02-17 12:20:00,
2013-02-17 06:30:00,35.5,23.4,29.99,South,185,1.0,16.0,61,0.00,,,0.00,Wunderground v.1.15,2013-02-17 12:30:00,
2013-02-17 06:35:00,35.5,23.4,29.99,South,186,2.0,16.0,61,0.00,,,0.00,Wunderground v.1.15,2013-02-17 12:35:00,
2013-02-17 06:40:00,35.5,23.0,29.99,South,186,2.0,16.0,60,0.00,,,0.00,Wunderground v.1.15,2013-02-17 12:40:00,
2013-02-17 06:45:00,35.5,23.0,29.99,SSE,167,2.0,16.0,60,0.00,,,0.00,Wunderground v.1.15,2013-02-17 12:45:00,
2013-02-17 06:50:00,35.6,23.1,29.99,South,186,1.0,16.0,60,0.00,,,0.00,Wunderground v.1.15,2013-02-17 12:50:00,
2013-02-17 07:00:00,35.6,23.1,29.99,South,175,2.0,16.0,60,0.00,,,0.00,Wunderground v.1.15,2013-02-17 13:00:00,
2013-02-17 07:05:00,35.6,23.1,29.99,SSW,208,2.0,16.0,60,0.00,,,0.00,Wunderground v.1.15,2013-02-17 13:05:00,
2013-02-17 07:10:00,35.7,23.2,30.00,SSW,194,4.0,16.0,60,0.00,,,0.00,Wunderground v.1.15,2013-02-17 13:10:00,
2013-02-17 07:15:00,35.7,23.2,30.00,South,191,5.0,16.0,60,0.00,,,0.00,Wunderground v.1.15,2013-02-17 13:15:00,
2013-02-17 07:25:00,35.8,23.3,30.00,SSW,198,4.0,16.0,60,0.00,,,0.00,Wunderground v.1.15,2013-02-17 13:25:00,
2013-02-17 07:35:00,35.9,23.4,30.00,South,188,5.0,16.0,60,0.00,,,0.00,Wunderground v.1.15,2013-02-17 13:35:00,
2013-02-17 07:40:00,36.0,23.4,30.00,South,184,5.0,16.0,60,0.00,,,0.00,Wunderground v.1.15,2013-02-17 13:40:00,
2013-02-17 07:45:00,36.2,23.6,30.00,SSW,194,5.0,16.0,60,0.00,,,0.00,Wunderground v.1.15,2013-02-17 13:45:00,
2013-02-17 07:50:00,36.2,23.6,30.00,SSW,198,4.0,16.0,60,0.00,,,0.00,Wunderground v.1.15,2013-02-17 13:50:00,
2013-02-17 07:55:00,36.4,23.8,30.00,SSW,213,4.0,16.0,60,0.00,,,0.00,Wunderground v.1.15,2013-02-17 13:55:00,
2013-02-17 08:05:00,36.7,24.1,30.00,South,191,4.0,16.0,60,0.00,,,0.00,Wunderground v.1.15,2013-02-17 14:05:00,
2013-02-17 08:10:00,36.9,23.9,30.01,SSW,213,4.0,16.0,59,0.00,,,0.00,Wunderground v.1.15,2013-02-17 14:10:00,
2013-02-17 08:15:00,37.0,24.0,30.01,SSW,198,5.0,16.0,59,0.00,,,0.00,Wunderground v.1.15,2013-02-17 14:15:00,
2013-02-17 08:25:00,37.3,24.3,30.02,SSW,196,5.0,16.0,59,0.00,,,0.00,Wunderground v.1.15,2013-02-17 14:25:00,
2013-02-17 08:30:00,37.5,24.1,30.02,SSW,204,6.0,16.0,58,0.00,,,0.00,Wunderground v.1.15,2013-02-17 14:30:00,
2013-02-17 08:40:00,37.9,24.4,30.02,SW,215,6.0,6.0,58,0.00,,,0.00,Wunderground v.1.15,2013-02-17 14:40:00,
2013-02-17 08:45:00,38.5,24.6,30.02,SW,219,5.0,16.0,57,0.00,,,0.00,Wunderground v.1.15,2013-02-17 14:45:00,
2013-02-17 08:50:00,39.0,24.6,30.02,SSW,203,5.0,16.0,56,0.00,,,0.00,Wunderground v.1.15,2013-02-17 14:50:00,
2013-02-17 08:55:00,39.3,24.9,30.02,SW,216,5.0,16.0,56,0.00,,,0.00,Wunderground v.1.15,2013-02-17 14:55:00,
2013-02-17 09:00:00,39.5,24.7,30.02,SSW,203,7.0,7.0,55,0.00,,,0.00,Wunderground v.1.15,2013-02-17 15:00:00,
2013-02-17 09:05:00,39.6,24.7,30.02,South,190,7.0,16.0,55,0.00,,,0.00,Wunderground v.1.15,2013-02-17 15:05:00,
2013-02-17 09:15:00,40.0,25.1,30.01,South,191,6.0,9.0,55,0.00,,,0.00,Wunderground v.1.15,2013-02-17 15:15:00,
2013-02-17 09:20:00,40.2,24.9,30.01,SSW,192,6.0,16.0,54,0.00,,,0.00,Wunderground v.1.15,2013-02-17 15:20:00,
2013-02-17 09:30:00,41.4,25.1,30.01,SSW,203,6.0,16.0,52,0.00,,,0.00,Wunderground v.1.15,2013-02-17 15:30:00,
2013-02-17 09:35:00,41.8,25.0,30.01,SSW,198,7.0,16.0,51,0.00,,,0.00,Wunderground v.1.15,2013-02-17 15:35:00,
2013-02-17 09:40:00,42.1,25.3,30.01,SW,217,7.0,16.0,51,0.00,,,0.00,Wunderground v.1.15,2013-02-17 15:40:00,
2013-02-17 09:50:00,42.9,25.5,30.01,South,183,7.0,7.0,50,0.00,,,0.00,Wunderground v.1.15,2013-02-17 15:50:00,
2013-02-17 09:55:00,43.5,25.6,30.01,South,181,8.0,8.0,49,0.00,,,0.00,Wunderground v.1.15,2013-02-17 15:55:00,
2013-02-17 10:00:00,44.0,25.5,30.01,SSE,167,7.0,16.0,48,0.00,,,0.00,Wunderground v.1.15,2013-02-17 16:00:00,
2013-02-17 10:05:00,43.6,25.7,30.01,South,175,6.0,16.0,49,0.00,,,0.00,Wunderground v.1.15,2013-02-17 16:05:00,
2013-02-17 10:10:00,44.3,26.3,30.01,South,172,5.0,16.0,49,0.00,,,0.00,Wunderground v.1.15,2013-02-17 16:10:00,
2013-02-17 10:20:00,44.6,24.5,30.01,South,169,8.0,8.0,45,0.00,,,0.00,Wunderground v.1.15,2013-02-17 16:20:00,
2013-02-17 10:30:00,45.3,25.7,30.01,South,182,6.0,6.0,46,0.00,,,0.00,Wunderground v.1.15,2013-02-17 16:30:00,
2013-02-17 10:35:00,45.7,25.5,30.01,SW,221,6.0,7.0,45,0.00,,,0.00,Wunderground v.1.15,2013-02-17 16:35:00,
2013-02-17 10:40:00,46.2,26.0,30.00,South,184,7.0,7.0,45,0.00,,,0.00,Wunderground v.1.15,2013-02-17 16:40:00,
2013-02-17 10:45:00,46.1,25.9,30.00,SSW,209,6.0,8.0,45,0.00,,,0.00,Wunderground v.1.15,2013-02-17 16:45:00,
2013-02-17 10:55:00,46.4,25.6,30.00,SSE,157,7.0,16.0,44,0.00,,,0.00,Wunderground v.1.15,2013-02-17 16:55:00,
2013-02-17 11:00:00,46.6,25.8,30.00,SW,217,7.0,16.0,44,0.00,,,0.00,Wunderground v.1.15,2013-02-17 17:00:00,
2013-02-17 11:05:00,47.1,25.7,30.00,SW,233,7.0,16.0,43,0.00,,,0.00,Wunderground v.1.15,2013-02-17 17:05:00,
2013-02-17 11:15:00,47.9,26.5,29.99,South,175,7.0,16.0,43,0.00,,,0.00,Wunderground v.1.15,2013-02-17 17:15:00,
2013-02-17 11:20:00,48.2,27.3,29.99,SSW,200,7.0,16.0,44,0.00,,,0.00,Wunderground v.1.15,2013-02-17 17:20:00,
2013-02-17 11:30:00,49.1,27.0,29.98,South,180,6.0,6.0,42,0.00,,,0.00,Wunderground v.1.15,2013-02-17 17:30:00,
2013-02-17 11:35:00,49.5,26.7,29.98,SW,221,6.0,16.0,41,0.00,,,0.00,Wunderground v.1.15,2013-02-17 17:35:00,
2013-02-17 11:40:00,50.2,26.8,29.97,SSW,194,7.0,16.0,40,0.00,,,0.00,Wunderground v.1.15,2013-02-17 17:40:00,
2013-02-17 11:45:00,49.9,25.9,29.97,South,186,7.0,16.0,39,0.00,,,0.00,Wunderground v.1.15,2013-02-17 17:45:00,
2013-02-17 11:50:00,49.5,26.7,29.97,South,176,8.0,16.0,41,0.00,,,0.00,Wunderground v.1.15,2013-02-17 17:50:00,
2013-02-17 11:55:00,49.2,26.5,29.96,SSE,165,8.0,16.0,41,0.00,,,0.00,Wunderground v.1.15,2013-02-17 17:55:00,
2013-02-17 12:05:00,49.7,26.9,29.96,SSE,164,7.0,16.0,41,0.00,,,0.00,Wunderground v.1.15,2013-02-17 18:05:00,
2013-02-17 12:10:00,50.0,27.2,29.95,South,169,7.0,7.0,41,0.00,,,0.00,Wunderground v.1.15,2013-02-17 18:10:00,
2013-02-17 12:20:00,50.5,27.0,29.95,SW,227,7.0,16.0,40,0.00,,,0.00,Wunderground v.1.15,2013-02-17 18:20:00,
2013-02-17 12:25:00,51.7,27.5,29.94,SSW,195,7.0,16.0,39,0.00,,,0.00,Wunderground v.1.15,2013-02-17 18:25:00,
2013-02-17 12:30:00,52.1,28.5,29.94,South,186,7.0,19.0,40,0.00,,,0.00,Wunderground v.1.15,2013-02-17 18:30:00,
2013-02-17 12:40:00,52.5,28.8,29.94,WSW,238,7.0,16.0,40,0.00,,,0.00,Wunderground v.1.15,2013-02-17 18:40:00,
2013-02-17 12:45:00,52.6,28.3,29.94,South,178,7.0,16.0,39,0.00,,,0.00,Wunderground v.1.15,2013-02-17 18:45:00,
2013-02-17 12:50:00,52.2,28.6,29.94,SSE,153,7.0,16.0,40,0.00,,,0.00,Wunderground v.1.15,2013-02-17 18:50:00,
2013-02-17 12:55:00,51.9,28.3,29.92,SSW,204,7.0,16.0,40,0.00,,,0.00,Wunderground v.1.15,2013-02-17 18:55:00,
2013-02-17 13:00:00,53.0,29.3,29.92,SSW,199,7.0,16.0,40,0.00,,,0.00,Wunderground v.1.15,2013-02-17 19:00:00,
2013-02-17 13:10:00,54.0,29.6,29.92,SSW,193,7.0,16.0,39,0.00,,,0.00,Wunderground v.1.15,2013-02-17 19:10:00,
2013-02-17 13:15:00,54.4,29.3,29.92,WSW,237,8.0,16.0,38,0.00,,,0.00,Wunderground v.1.15,2013-02-17 19:15:00,
2013-02-17 13:20:00,53.8,29.4,29.92,South,179,7.0,7.0,39,0.00,,,0.00,Wunderground v.1.15,2013-02-17 19:20:00,
2013-02-17 13:30:00,52.5,29.5,29.90,SW,228,7.0,16.0,41,0.00,,,0.00,Wunderground v.1.15,2013-02-17 19:30:00,
2013-02-17 13:35:00,53.0,29.9,29.90,South,184,6.0,16.0,41,0.00,,,0.00,Wunderground v.1.15,2013-02-17 19:35:00,
2013-02-17 13:45:00,53.6,31.0,29.90,SSE,167,7.0,7.0,42,0.00,,,0.00,Wunderground v.1.15,2013-02-17 19:45:00,
2013-02-17 13:50:00,53.2,30.1,29.90,SSE,155,6.0,16.0,41,0.00,,,0.00,Wunderground v.1.15,2013-02-17 19:50:00,
2013-02-17 13:55:00,53.2,30.7,29.89,South,188,6.0,16.0,42,0.00,,,0.00,Wunderground v.1.15,2013-02-17 19:55:00,
2013-02-17 14:00:00,53.9,31.3,29.89,SSE,163,7.0,16.0,42,0.00,,,0.00,Wunderground v.1.15,2013-02-17 20:00:00,
2013-02-17 14:05:00,52.9,30.4,29.89,SSE,166,8.0,16.0,42,0.00,,,0.00,Wunderground v.1.15,2013-02-17 20:05:00,
2013-02-17 14:15:00,54.2,31.0,29.89,SSE,159,8.0,16.0,41,0.00,,,0.00,Wunderground v.1.15,2013-02-17 20:15:00,
2013-02-17 14:20:00,54.4,31.2,29.89,SSW,209,7.0,16.0,41,0.00,,,0.00,Wunderground v.1.15,2013-02-17 20:20:00,
2013-02-17 14:25:00,54.8,30.9,29.88,South,186,7.0,16.0,40,0.00,,,0.00,Wunderground v.1.15,2013-02-17 20:25:00,
2013-02-17 14:30:00,54.5,31.3,29.88,SE,140,6.0,16.0,41,0.00,,,0.00,Wunderground v.1.15,2013-02-17 20:30:00,
2013-02-17 14:35:00,54.3,31.7,29.88,SSE,164,6.0,16.0,42,0.00,,,0.00,Wunderground v.1.15,2013-02-17 20:35:00,
2013-02-17 14:40:00,54.2,31.0,29.88,SSE,155,8.0,16.0,41,0.00,,,0.00,Wunderground v.1.15,2013-02-17 20:40:00,
2013-02-17 14:45:00,54.2,31.6,29.88,SSW,196,8.0,16.0,42,0.00,,,0.00,Wunderground v.1.15,2013-02-17 20:45:00,
2013-02-17 14:55:00,54.9,32.2,29.87,South,191,6.0,16.0,42,0.00,,,0.00,Wunderground v.1.15,2013-02-17 20:55:00,
2013-02-17 15:00:00,55.4,32.1,29.87,South,183,8.0,8.0,41,0.00,,,0.00,Wunderground v.1.15,2013-02-17 21:00:00,
2013-02-17 15:05:00,56.0,32.0,29.87,SSE,157,7.0,16.0,40,0.00,,,0.00,Wunderground v.1.15,2013-02-17 21:05:00,
2013-02-17 15:15:00,55.6,32.2,29.86,SSW,210,7.0,16.0,41,0.00,,,0.00,Wunderground v.1.15,2013-02-17 21:15:00,
2013-02-17 15:20:00,56.1,32.1,29.86,South,181,7.0,7.0,40,0.00,,,0.00,Wunderground v.1.15,2013-02-17 21:20:00,
2013-02-17 15:30:00,55.5,32.2,29.86,South,186,8.0,8.0,41,0.00,,,0.00,Wunderground v.1.15,2013-02-17 21:30:00,
2013-02-17 15:35:00,55.7,32.3,29.86,SSW,209,8.0,16.0,41,0.00,,,0.00,Wunderground v.1.15,2013-02-17 21:35:00,
2013-02-17 15:40:00,56.3,32.3,29.85,South,191,7.0,16.0,40,0.00,,,0.00,Wunderground v.1.15,2013-02-17 21:40:00,
2013-02-17 15:45:00,56.0,32.0,29.85,South,176,8.0,16.0,40,0.00,,,0.00,Wunderground v.1.15,2013-02-17 21:45:00,
2013-02-17 15:50:00,55.8,32.4,29.85,SSW,194,8.0,8.0,41,0.00,,,0.00,Wunderground v.1.15,2013-02-17 21:50:00,
2013-02-17 16:00:00,55.9,31.9,29.85,SSW,194,7.0,16.0,40,0.00,,,0.00,Wunderground v.1.15,2013-02-17 22:00:00,
2013-02-17 16:05:00,56.0,32.0,29.85,SSW,210,7.0,16.0,40,0.00,,,0.00,Wunderground v.1.15,2013-02-17 22:05:00,
2013-02-17 16:10:00,56.2,32.2,29.85,SSW,205,6.0,16.0,40,0.00,,,0.00,Wunderground v.1.15,2013-02-17 22:10:00,
2013-02-17 16:20:00,56.0,32.6,29.85,SSW,195,7.0,7.0,41,0.00,,,0.00,Wunderground v.1.15,2013-02-17 22:20:00,
2013-02-17 16:25:00,56.0,32.6,29.84,SW,215,7.0,16.0,41,0.00,,,0.00,Wunderground v.1.15,2013-02-17 22:25:00,
2013-02-17 16:35:00,56.1,32.7,29.84,SW,217,8.0,16.0,41,0.00,,,0.00,Wunderground v.1.15,2013-02-17 22:35:00,
2013-02-17 16:40:00,56.0,32.6,29.84,South,188,8.0,16.0,41,0.00,,,0.00,Wunderground v.1.15,2013-02-17 22:40:00,
2013-02-17 16:45:00,55.8,32.4,29.84,SSE,153,8.0,16.0,41,0.00,,,0.00,Wunderground v.1.15,2013-02-17 22:45:00,
2013-02-17 16:50:00,55.7,32.3,29.84,SSW,205,7.0,16.0,41,0.00,,,0.00,Wunderground v.1.15,2013-02-17 22:50:00,
2013-02-17 16:55:00,55.6,32.8,29.83,SE,145,6.0,16.0,42,0.00,,,0.00,Wunderground v.1.15,2013-02-17 22:55:00,
2013-02-17 17:00:00,55.4,32.7,29.83,South,175,5.0,5.0,42,0.00,,,0.00,Wunderground v.1.15,2013-02-17 23:00:00,
2013-02-17 17:10:00,55.3,32.6,29.84,SSW,212,7.0,16.0,42,0.00,,,0.00,Wunderground v.1.15,2013-02-17 23:10:00,
2013-02-17 17:15:00,55.1,32.4,29.84,SSW,206,8.0,16.0,42,0.00,,,0.00,Wunderground v.1.15,2013-02-17 23:15:00,
2013-02-17 17:25:00,54.8,32.7,29.84,SW,219,7.0,16.0,43,0.00,,,0.00,Wunderground v.1.15,2013-02-17 23:25:00,
2013-02-17 17:30:00,54.4,32.9,29.84,South,173,7.0,16.0,44,0.00,,,0.00,Wunderground v.1.15,2013-02-17 23:30:00,
2013-02-17 17:35:00,54.2,32.7,29.84,SW,227,6.0,16.0,44,0.00,,,0.00,Wunderground v.1.15,2013-02-17 23:35:00,
2013-02-17 17:45:00,53.7,32.8,29.84,SSW,199,7.0,16.0,45,0.00,,,0.00,Wunderground v.1.15,2013-02-17 23:45:00,
2013-02-17 17:50:00,53.5,33.2,29.84,South,185,7.0,16.0,46,0.00,,,0.00,Wunderground v.1.15,2013-02-17 23:50:00,
2013-02-17 17:55:00,53.3,33.0,29.84,SSW,200,7.0,16.0,46,0.00,,,0.00,Wunderground v.1.15,2013-02-17 23:55:00,
2013-02-17 18:00:00,53.1,32.8,29.84,SW,219,7.0,16.0,46,0.00,,,0.00,Wunderground v.1.15,2013-02-18 00:00:00,
2013-02-17 18:05:00,53.1,33.4,29.84,SSW,205,7.0,16.0,47,0.00,,,0.00,Wunderground v.1.15,2013-02-18 00:05:00,
2013-02-17 18:15:00,52.7,33.5,29.84,SSW,208,6.0,8.0,48,0.00,,,0.00,Wunderground v.1.15,2013-02-18 00:15:00,
2013-02-17 18:25:00,52.2,33.6,29.84,SSW,196,5.0,16.0,49,0.00,,,0.00,Wunderground v.1.15,2013-02-18 00:25:00,
2013-02-17 18:30:00,52.0,33.4,29.84,SSW,206,5.0,5.0,49,0.00,,,0.00,Wunderground v.1.15,2013-02-18 00:30:00,
2013-02-17 18:35:00,51.9,33.8,29.84,SSW,211,5.0,7.0,50,0.00,,,0.00,Wunderground v.1.15,2013-02-18 00:35:00,
2013-02-17 18:40:00,51.8,33.7,29.84,SW,223,5.0,5.0,50,0.00,,,0.00,Wunderground v.1.15,2013-02-18 00:40:00,
2013-02-17 18:50:00,51.4,33.9,29.84,SSW,194,4.0,16.0,51,0.00,,,0.00,Wunderground v.1.15,2013-02-18 00:50:00,
2013-02-17 18:55:00,51.2,34.2,29.84,South,180,4.0,16.0,52,0.00,,,0.00,Wunderground v.1.15,2013-02-18 00:55:00,
2013-02-17 19:00:00,51.0,34.0,29.84,South,169,5.0,5.0,52,0.00,,,0.00,Wunderground v.1.15,2013-02-18 01:00:00,
2013-02-17 19:05:00,50.9,33.9,29.84,South,180,4.0,6.0,52,0.00,,,0.00,Wunderground v.1.15,2013-02-18 01:05:00,
2013-02-17 19:10:00,50.9,33.9,29.84,South,178,4.0,16.0,52,0.00,,,0.00,Wunderground v.1.15,2013-02-18 01:10:00,
2013-02-17 19:20:00,50.5,34.0,29.84,South,182,2.0,2.0,53,0.00,,,0.00,Wunderground v.1.15,2013-02-18 01:20:00,
2013-02-17 19:30:00,50.4,33.9,29.84,SSE,168,3.0,3.0,53,0.00,,,0.00,Wunderground v.1.15,2013-02-18 01:30:00,
2013-02-17 19:35:00,50.3,33.8,29.84,SSE,164,3.0,16.0,53,0.00,,,0.00,Wunderground v.1.15,2013-02-18 01:35:00,
2013-02-17 19:40:00,50.2,33.7,29.84,SSE,165,2.0,2.0,53,0.00,,,0.00,Wunderground v.1.15,2013-02-18 01:40:00,
2013-02-17 19:45:00,50.1,33.6,29.84,SSE,165,2.0,4.0,53,0.00,,,0.00,Wunderground v.1.15,2013-02-18 01:45:00,
2013-02-17 19:50:00,49.9,33.4,29.84,SSE,165,2.0,16.0,53,0.00,,,0.00,Wunderground v.1.15,2013-02-18 01:50:00,
2013-02-17 20:00:00,49.7,33.2,29.85,SSE,159,2.0,16.0,53,0.00,,,0.00,Wunderground v.1.15,2013-02-18 02:00:00,
2013-02-17 20:05:00,49.7,32.8,29.85,SSE,152,3.0,16.0,52,0.00,,,0.00,Wunderground v.1.15,2013-02-18 02:05:00,
2013-02-17 20:10:00,49.7,32.8,29.84,South,171,5.0,5.0,52,0.00,,,0.00,Wunderground v.1.15,2013-02-18 02:10:00,
2013-02-17 20:15:00,49.6,32.2,29.84,South,174,5.0,7.0,51,0.00,,,0.00,Wunderground v.1.15,2013-02-18 02:15:00,
2013-02-17 20:25:00,49.5,32.1,29.84,SE,142,4.0,16.0,51,0.00,,,0.00,Wunderground v.1.15,2013-02-18 02:25:00,
2013-02-17 20:35:00,49.3,31.9,29.84,SSE,165,4.0,16.0,51,0.00,,,0.00,Wunderground v.1.15,2013-02-18 02:35:00,
2013-02-17 20:40:00,49.3,31.9,29.84,SSE,165,5.0,16.0,51,0.00,,,0.00,Wunderground v.1.15,2013-02-18 02:40:00,
2013-02-17 20:45:00,49.4,32.0,29.84,SSE,147,6.0,16.0,51,0.00,,,0.00,Wunderground v.1.15,2013-02-18 02:45:00,
2013-02-17 20:50:00,49.3,31.9,29.84,South,169,5.0,16.0,51,0.00,,,0.00,Wunderground v.1.15,2013-02-18 02:50:00,
2013-02-17 20:55:00,49.2,31.8,29.84,SSE,156,5.0,16.0,51,0.00,,,0.00,Wunderground v.1.15,2013-02-18 02:55:00,
2013-02-17 21:05:00,49.2,31.8,29.84,SSE,156,6.0,16.0,51,0.00,,,0.00,Wunderground v.1.15,2013-02-18 03:05:00,
2013-02-17 21:10:00,49.2,31.8,29.84,SSE,157,6.0,16.0,51,0.00,,,0.00,Wunderground v.1.15,2013-02-18 03:10:00,
2013-02-17 21:15:00,49.1,31.7,29.84,SSE,159,5.0,16.0,51,0.00,,,0.00,Wunderground v.1.15,2013-02-18 03:15:00,
2013-02-17 21:25:00,49.0,32.1,29.84,SSE,150,6.0,16.0,52,0.00,,,0.00,Wunderground v.1.15,2013-02-18 03:25:00,
2013-02-17 21:30:00,48.9,32.0,29.84,South,176,6.0,16.0,52,0.00,,,0.00,Wunderground v.1.15,2013-02-18 03:30:00,
2013-02-17 21:40:00,48.8,31.9,29.84,South,169,6.0,6.0,52,0.00,,,0.00,Wunderground v.1.15,2013-02-18 03:40:00,
2013-02-17 21:45:00,48.6,32.2,29.84,SSE,165,6.0,16.0,53,0.00,,,0.00,Wunderground v.1.15,2013-02-18 03:45:00,
2013-02-17 21:50:00,48.6,32.2,29.84,SE,144,6.0,16.0,53,0.00,,,0.00,Wunderground v.1.15,2013-02-18 03:50:00,
2013-02-17 21:55:00,48.5,32.1,29.83,SSE,164,7.0,16.0,53,0.00,,,0.00,Wunderground v.1.15,2013-02-18 03:55:00,
2013-02-17 22:00:00,48.4,32.0,29.83,SSE,149,6.0,16.0,53,0.00,,,0.00,Wunderground v.1.15,2013-02-18 04:00:00,
2013-02-17 22:05:00,48.3,32.4,29.83,South,178,6.0,16.0,54,0.00,,,0.00,Wunderground v.1.15,2013-02-18 04:05:00,
2013-02-17 22:15:00,48.1,32.2,29.83,SSE,152,6.0,16.0,54,0.00,,,0.00,Wunderground v.1.15,2013-02-18 04:15:00,
2013-02-17 22:20:00,48.1,32.2,29.83,South,169,6.0,6.0,54,0.00,,,0.00,Wunderground v.1.15,2013-02-18 04:20:00,
2013-02-17 22:30:00,47.9,32.5,29.83,SSE,165,5.0,16.0,55,0.00,,,0.00,Wunderground v.1.15,2013-02-18 04:30:00,
2013-02-17 22:35:00,48.0,32.6,29.83,South,175,5.0,16.0,55,0.00,,,0.00,Wunderground v.1.15,2013-02-18 04:35:00,
2013-02-17 22:40:00,48.0,32.6,29.83,South,175,6.0,16.0,55,0.00,,,0.00,Wunderground v.1.15,2013-02-18 04:40:00,
2013-02-17 22:50:00,48.1,32.7,29.83,SSW,195,6.0,16.0,55,0.00,,,0.00,Wunderground v.1.15,2013-02-18 04:50:00,
2013-02-17 22:55:00,48.3,32.9,29.82,South,178,7.0,16.0,55,0.00,,,0.00,Wunderground v.1.15,2013-02-18 04:55:00,
2013-02-17 23:00:00,48.3,32.9,29.82,South,169,7.0,16.0,55,0.00,,,0.00,Wunderground v.1.15,2013-02-18 05:00:00,
2013-02-17 23:05:00,48.3,32.9,29.82,South,183,7.0,16.0,55,0.00,,,0.00,Wunderground v.1.15,2013-02-18 05:05:00,
2013-02-17 23:10:00,48.3,32.9,29.82,SSE,165,6.0,6.0,55,0.00,,,0.00,Wunderground v.1.15,2013-02-18 05:10:00,
2013-02-17 23:20:00,48.3,32.9,29.82,South,187,6.0,16.0,55,0.00,,,0.00,Wunderground v.1.15,2013-02-18 05:20:00,
2013-02-17 23:25:00,48.2,32.8,29.81,South,172,6.0,16.0,55,0.00,,,0.00,Wunderground v.1.15,2013-02-18 05:25:00,
2013-02-17 23:35:00,48.2,33.2,29.81,South,175,6.0,10.0,56,0.00,,,0.00,Wunderground v.1.15,2013-02-18 05:35:00,
2013-02-17 23:40:00,48.2,33.2,29.82,SSW,207,6.0,6.0,56,0.00,,,0.00,Wunderground v.1.15,2013-02-18 05:40:00,
2013-02-17 23:45:00,48.3,33.3,29.82,South,188,7.0,7.0,56,0.00,,,0.00,Wunderground v.1.15,2013-02-18 05:45:00,
2013-02-17 23:55:00,48.3,33.3,29.81,South,175,5.0,16.0,56,0.00,,,0.00,Wunderground v.1.15,2013-02-18 05:55:00,